Date/Time (UTC),PHv2,PWv2,PTv2,PSv3,PHv3,PWv3,PTv3,MESH,VIL,CompRef,Ref -20C,Flash Rate,Max Flash Density,LJA sigma-level,Max 0-2km AzShear,LLAZ 98th%,MLAZ 98th%,MUCAPE,MLCAPE,CAPE -10C to -30C,MLCIN,SRH 0-1km AGL,EBShear,MeanWind 0-1km AGL,Norm. Sat. Growth Rate,ICP,PWAT,WBZ,AvgBeamHgt,STP(eff),DCAPE,ESRH
2022/04/12 21:18,3,3,0,16,9,5,1,0.09,8,49.5,43,2,0.11,0,5,4,5,2892,2523,859,17,43,45,29,0,0,1.3,10.8,3.54,0.1,1186,143
2022/04/12 21:20,3,3,0,14,7,6,1,0.09,8,49.5,41,2,0.11,0,4,4,5,2871,2540,856,17,44,45,29,0,0,1.3,10.8,3.46,0.1,1186,143
2022/04/12 21:22,3,3,1,15,7,6,2,0.09,8,51.0,40,2,0.11,0,5,5,6,2828,2542,850,17,46,45,29,0,0,1.3,10.8,3.37,0.1,1186,143
2022/04/12 21:24,4,16,1,20,12,7,2,0.17,9,51.0,44,3,0.11,0,5,5,6,2844,2542,834,17,47,45,29,0,0,1.3,10.8,3.5,0.1,1186,143
2022/04/12 21:26,6,20,1,24,16,10,3,0.29,10,53.5,46,6,0.14,0,5,5,5,2847,2551,850,17,47,45,29,0,0,1.3,10.8,3.44,0.1,1186,143
2022/04/12 21:28,7,20,1,27,19,16,3,0.33,16,53.5,49,8,0.14,0,6,5,5,2843,2584,856,17,48,46,29,0,0,1.3,10.8,3.36,0.1,1186,143
2022/04/12 21:30,15,32,1,32,21,22,6,0.51,20,58.5,49,8,0.14,0,7,5,6,2830,2590,854,17,49,46,29,0,0,1.3,10.8,3.29,0.1,1186,143
2022/04/12 21:32,15,32,1,32,22,25,7,0.51,20,58.5,48,9,0.2,0,9,5,6,2831,2606,857,16,50,46,29,0,1,1.3,10.8,3.23,0.1,1186,143
2022/04/12 21:34,14,36,1,30,16,20,6,0.51,22,60.5,48,9,0.2,0,9,5,3,2781,2640,865,15,49,47,29,0,1,1.3,10.8,2.96,0.1,1186,143
2022/04/12 21:36,12,36,1,32,20,26,8,0.46,23,60.5,50,9,0.2,0,7,5,6,2855,2729,883,15,50,47,29,0,1,1.3,10.9,2.88,0.1,1186,143
2022/04/12 21:38,12,46,2,35,22,24,8,0.46,24,60.5,50,9,0.2,0,9,6,7,2855,2729,883,15,50,47,29,0,5,1.3,10.9,2.88,0.1,1186,143
2022/04/12 21:40,14,55,3,44,32,25,9,0.54,26,58.5,52,8,0.2,0,9,6,10,2855,2729,883,15,50,47,29,0,5,1.3,10.9,2.86,0.1,1186,143
2022/04/12 21:42,17,62,13,53,33,29,13,0.57,26,58.5,52,8,0.2,0,11,10,10,2936,2802,912,15,54,47,29,0,4,1.3,10.9,2.74,0.1,1186,143
2022/04/12 21:44,23,65,24,57,37,30,13,0.63,26,58.5,52,15,0.67,2.2,11,10,10,2991,2851,917,15,54,47,29,0,23,1.4,10.9,2.73,0.1,1186,143
2022/04/12 21:46,34,73,26,64,42,31,15,0.74,31,59.0,55,16,0.67,0.4,11,10,11,3045,2918,926,15,54,47,29,0,15,1.4,10.9,2.69,0.1,1186,143
2022/04/12 21:48,62,85,26,69,54,39,20,0.91,36,59.0,56,27,0.67,2.9,11,10,11,3049,2918,926,15,54,47,29,0,73,1.4,10.9,2.67,0.1,1186,143
2022/04/12 21:50,62,85,14,66,49,29,16,0.91,36,61.0,54,27,0.67,-1,9,8,10,3151,3019,955,15,59,48,29,0,30,1.4,10.9,2.58,0.1,1186,143
2022/04/12 21:52,69,90,14,71,52,31,16,1.02,43,61.0,58,27,0.67,0,9,8,10,3292,3138,980,15,60,48,29,0,29,1.4,11.0,2.53,0.3,1178,143
2022/04/12 21:54,69,85,8,71,51,34,17,1.02,43,61.0,56,27,0.67,0.4,8,6,9,3451,3300,1011,15,64,48,29,0,44,1.4,11.0,2.41,0.3,1178,137
2022/04/12 21:56,69,85,7,69,51,32,16,1.02,43,60.5,54,25,0.67,1.4,8,6,9,3451,3300,1011,15,64,48,29,0,44,1.4,11.0,2.41,0.3,1178,137
2022/04/12 21:58,65,78,3,69,54,34,18,0.95,39,60.5,55,25,0.67,0,6,5,8,3577,3430,1040,15,67,49,29,0,81,1.4,11.0,2.29,0.3,1178,137
2022/04/12 22:00,67,78,3,69,51,33,13,0.95,39,60.5,55,27,0.67,0.4,6,5,8,3591,3434,1041,16,69,49,29,0,47,1.4,11.1,2.26,0.4,1055,172
2022/04/12 22:02,81,85,6,71,51,37,21,0.95,39,60.5,54,33,0.67,1.3,6,5,8,3488,3282,1044,18,107,55,31,0,87,1.5,11.1,2.2,0.4,1055,172
2022/04/12 22:04,75,78,5,70,51,38,18,0.88,40,60.5,54,33,0.67,-1,5,4,9,3537,3301,1047,18,107,55,30,0,87,1.5,11.1,2.15,0.4,1055,172
2022/04/12 22:06,81,85,6,74,53,38,17,0.9,44,60.5,55,42,0.74,2.6,5,4,8,3582,3377,1067,22,111,55,30,0,85,1.5,11.1,2.03,0.4,1055,172
2022/04/12 22:08,81,85,5,73,55,35,17,0.9,44,60.5,56,42,0.74,-2,5,4,8,3582,3377,1067,22,111,55,30,0,89,1.5,11.1,2.03,0.4,1055,172
2022/04/12 22:10,91,89,4,80,65,36,20,1.24,56,60.5,59,42,0.74,1.4,5,4,8,3582,3377,1071,22,108,55,30,0,89,1.5,11.1,2.01,0.4,1055,172
2022/04/12 22:12,92,89,4,84,68,43,24,1.28,56,64.0,59,42,0.74,-1,6,4,8,3593,3390,1082,23,108,55,30,0,95,1.5,11.1,1.86,0.4,1055,172
2022/04/12 22:14,92,92,7,87,74,49,30,1.28,57,64.0,59,40,0.74,0.9,7,5,7,3620,3425,1091,27,111,55,30,0,99,1.5,11.1,1.74,0.4,1055,172
2022/04/12 22:16,92,95,15,87,72,46,35,1.28,57,64.0,58,40,0.74,0,8,6,10,3650,3448,1092,27,111,55,30,0,99,1.5,11.1,1.7,0.4,1055,172
2022/04/12 22:18,91,95,15,85,71,46,34,1.25,57,63.5,58,38,0.74,0.2,8,6,10,3650,3448,1092,27,111,55,30,0,100,1.5,11.1,1.7,0.4,1055,172
2022/04/12 22:20,92,95,23,85,68,57,41,1.18,52,61.0,57,59,0.74,2.7,8,6,9,3653,3460,1097,29,112,55,30,0,100,1.5,11.1,1.6,0.4,1055,172
2022/04/12 22:22,92,95,42,86,68,59,49,1.18,52,61.0,56,59,0.74,-1,12,7,10,3653,3460,1097,29,112,55,30,0,100,1.5,11.1,1.6,0.4,1055,172
2022/04/12 22:24,92,95,51,86,67,60,50,1.18,52,61.0,56,59,0.74,0,13,8,12,3681,3474,1099,29,112,55,30,0,100,1.5,11.1,1.56,0.5,1055,172
2022/04/12 22:26,92,95,73,88,68,63,54,1.18,52,61.0,56,59,0.74,1.0,19,9,12,3691,3488,1100,31,112,55,30,0,100,1.5,11.1,1.52,0.9,1055,172
2022/04/12 22:28,89,95,73,88,67,63,54,1.14,54,62.5,55,44,0.74,0,19,9,10,3717,3507,1100,32,114,55,31,0,99,1.5,11.1,1.48,0.9,1055,172
2022/04/12 22:30,89,95,78,88,66,63,54,1.15,54,62.5,55,44,0.74,0,28,10,10,3717,3507,1100,32,114,55,31,0,99,1.5,11.1,1.46,0.9,1055,172
2022/04/12 22:32,93,95,76,90,71,65,58,1.31,54,62.5,56,44,0.74,0.4,28,10,13,3765,3543,1103,35,114,54,31,0,100,1.5,11.1,1.36,0.9,1055,172
2022/04/12 22:34,90,95,81,90,71,65,58,1.31,54,62.0,56,32,0.74,0.0,24,13,13,3765,3543,1103,35,114,54,31,0,100,1.5,11.1,1.36,0.9,1055,172
2022/04/12 22:36,94,95,81,90,69,62,56,1.39,47,61.5,56,48,0.74,2.0,25,13,14,3780,3544,1103,35,114,54,31,0,100,1.5,11.0,1.31,1.3,1001,172
2022/04/12 22:38,94,95,81,90,68,62,56,1.39,47,61.5,55,48,0.56,-1,25,13,14,3780,3544,1103,35,114,54,31,0,100,1.5,11.0,1.31,1.3,1001,172
2022/04/12 22:40,96,95,78,92,76,64,56,1.51,64,61.5,57,48,0.56,0.2,23,13,14,3839,3572,1106,38,115,53,31,0,100,1.5,10.9,1.21,1.3,1001,172
2022/04/12 22:42,96,95,78,91,76,63,56,1.51,64,61.5,58,48,0.56,0,33,13,18,3839,3572,1106,38,115,53,31,0,100,1.5,10.9,1.21,1.3,1001,172
2022/04/12 22:44,95,95,77,90,79,61,53,1.58,66,61.5,60,38,0.56,1.4,33,20,13,3839,3572,1107,38,114,53,31,0,100,1.5,10.9,1.17,1.3,1001,172
2022/04/12 22:46,95,95,73,92,80,61,52,1.58,66,64.5,60,38,0.56,0,33,20,13,3915,3584,1109,41,114,52,30,0,100,1.5,10.7,1.06,1.3,1001,172
2022/04/12 22:48,95,95,73,91,80,62,52,1.58,66,64.5,60,38,0.56,0,33,20,14,3915,3584,1109,41,114,52,30,0,100,1.5,10.7,1.06,1.3,1001,172
2022/04/12 22:50,95,95,69,93,81,61,53,1.7,68,64.5,60,38,0.56,0.8,33,16,13,3928,3577,1114,43,114,50,30,0,99,1.5,10.6,0.97,1.3,1001,172
2022/04/12 22:52,95,95,69,93,81,61,53,1.7,68,64.5,60,34,0.56,0,26,15,14,3928,3577,1114,43,114,50,30,0,100,1.5,10.6,0.97,1.3,1001,172
2022/04/12 22:54,96,95,69,93,81,61,53,1.7,68,64.5,60,39,0.56,0.6,26,15,14,3987,3577,1114,43,113,49,30,0,99,1.5,10.6,0.95,1.3,1001,172
2022/04/12 22:56,96,95,69,93,81,63,53,1.7,68,65.0,59,39,0.56,-2,26,14,13,3987,3572,1114,43,113,48,30,0,100,1.5,10.6,0.91,1.3,1001,172
2022/04/12 22:58,95,95,83,93,81,65,53,1.51,64,65.0,59,40,0.56,1.9,26,14,12,3778,3462,1080,44,137,56,33,0,100,1.5,11.3,0.86,1.3,1001,172
2022/04/12 23:00,92,95,82,91,75,63,46,1.28,59,65.0,59,40,0.56,-1,27,13,14,3778,3475,1083,44,137,56,33,0,100,1.5,11.3,0.84,1.5,1216,206
2022/04/12 23:02,93,95,83,92,77,63,47,1.31,63,65.0,58,40,0.56,0.3,27,13,12,3781,3489,1085,46,137,56,33,0,100,1.5,11.3,0.81,1.5,1216,206
2022/04/12 23:04,94,95,81,92,78,62,46,1.37,65,65.0,58,40,0.56,0,27,13,12,3781,3514,1086,47,137,56,33,0,99,1.5,11.3,0.81,1.8,1216,206
2022/04/12 23:06,94,95,72,92,79,62,47,1.47,65,65.0,60,31,0.56,0.1,23,10,11,3782,3521,1090,50,137,56,33,0,99,1.5,11.3,0.8,1.8,1216,206
2022/04/12 23:08,94,95,65,92,77,62,46,1.47,65,65.0,59,31,0.52,0,20,10,11,3782,3521,1090,50,137,56,33,0,98,1.5,11.3,0.8,1.8,1216,206
2022/04/12 23:10,95,95,19,89,77,55,37,1.66,68,63.5,60,33,0.52,1.4,10,7,10,3784,3543,1090,50,137,56,33,0,98,1.5,11.3,0.8,1.8,1216,206
2022/04/12 23:12,95,95,11,92,81,49,30,1.66,68,67.0,60,33,0.52,-1,8,6,9,3782,3543,1086,50,136,56,33,0,99,1.5,11.3,0.82,1.8,1216,206
2022/04/12 23:14,95,95,9,92,80,49,30,1.66,68,67.0,58,33,0.52,-1,8,6,9,3782,3543,1085,50,136,56,33,0,99,1.5,11.3,0.84,1.8,1216,206
2022/04/12 23:16,95,95,7,92,79,48,30,1.63,66,67.0,58,33,0.52,1.9,8,6,7,3782,3543,1085,51,135,56,33,0,99,1.5,11.3,0.86,1.8,1216,206
2022/04/12 23:18,95,95,7,90,77,45,27,1.56,65,67.0,58,30,0.52,0,8,6,9,3782,3521,1084,50,134,56,33,0,97,1.5,11.3,0.88,1.8,1216,206
2022/04/12 23:20,92,95,6,90,76,47,23,1.4,64,67.0,58,30,0.52,0.1,7,5,9,3782,3543,1084,51,134,56,34,0,97,1.5,11.3,0.89,1.8,1110,211
2022/04/12 23:22,91,92,6,84,68,43,22,1.31,56,62.0,58,31,0.54,1.1,7,6,9,3779,3543,1080,51,134,56,34,0,97,1.6,11.3,0.93,1.8,1110,211
